This is the latest recevied weather packets stored in our database for station/object HB0PJ-13. If no packets are shown the sender has not sent any weather packets the latest 1 day(s).
| Time | Temp. | Humidity | Pressure | Rain* | Wind** | Luminosity | Snow |
|---|---|---|---|---|---|---|---|
| 1778069766 | 20° C | 45% | 949.8 hPa | - | - | 51 W/m² | - |
| 1778069526 | 19.44° C | 45% | 949.8 hPa | - | - | 51 W/m² | - |
| 1778069406 | 19.44° C | 46% | 949.9 hPa | - | - | 52 W/m² | - |
| 1778069286 | 19.44° C | 46% | 949.8 hPa | - | - | 54 W/m² | - |
| 1778069046 | 19.44° C | 46% | 949.7 hPa | - | - | 39 W/m² | - |
| 1778068926 | 19.44° C | 46% | 949.8 hPa | - | - | 41 W/m² | - |
| 1778068686 | 18.89° C | 48% | 949.9 hPa | - | - | 60 W/m² | - |
| 1778068566 | 18.89° C | 47% | 950 hPa | - | - | 69 W/m² | - |
| 1778068446 | 18.89° C | 47% | 950 hPa | - | - | 60 W/m² | - |
| 1778068326 | 18.33° C | 48% | 950 hPa | - | - | 54 W/m² | - |
| 1778068206 | 18.33° C | 48% | 950 hPa | - | - | 52 W/m² | - |
| 1778068086 | 18.33° C | 48% | 950.1 hPa | - | - | 31 W/m² | - |
| 1778067966 | 18.33° C | 49% | 950.2 hPa | - | - | 32 W/m² | - |
| 1778067846 | 18.33° C | 49% | 950.3 hPa | - | - | 33 W/m² | - |
| 1778067726 | 18.33° C | 49% | 950.2 hPa | - | - | 35 W/m² | - |
| 1778067486 | 18.33° C | 49% | 950.4 hPa | - | - | 42 W/m² | - |
| 1778067366 | 18.33° C | 48% | 950.4 hPa | - | - | 43 W/m² | - |
| 1778067246 | 17.78° C | 49% | 950.4 hPa | - | - | 43 W/m² | - |
| 1778067126 | 17.78° C | 49% | 950.4 hPa | - | - | 41 W/m² | - |
| 1778066886 | 17.78° C | 50% | 950.5 hPa | - | - | 25 W/m² | - |
| 1778066766 | 17.78° C | 50% | 950.4 hPa | - | - | 23 W/m² | - |
| 1778066646 | 17.78° C | 49% | 950.4 hPa | - | - | 22 W/m² | - |
| 1778066406 | 17.78° C | 48% | 950.3 hPa | - | - | 22 W/m² | - |
| 1778066166 | 17.78° C | 49% | 950.2 hPa | - | - | 21 W/m² | - |
| 1778066046 | 17.78° C | 49% | 950.2 hPa | - | - | 22 W/m² | - |
* Rain since midnight (hover to see other rain measurements)
** Current wind speed in m/s (hover to see current wind gust speed)